Location: Key Biscayne
(25.6930°N, 80.1630°W)
Time: 10:32:53
(UTC-05:00)

Vanguard 3 - All Passes

Search period start: 21 November 2017 00:00
Search period end: 01 December 2017 00:00
Orbit: 509 x 3263 km, 33.4° (Epoch: 21 November)

Date Brightness Start Highest point End Pass type
(mag) Time Alt. Az. Time Alt. Az. Time Alt. Az.
21 Nov - 00:27:58 10° WNW 00:45:28 84° SSW 01:05:15 10° ESE visible
21 Nov - 02:44:24 10° WNW 03:02:04 43° SW 03:18:02 10° SSE visible
21 Nov - 05:12:52 10° WSW 05:16:35 11° SW 05:20:06 10° SW visible
21 Nov - 16:37:32 10° SSW 16:42:44 36° SE 16:51:14 10° ENE daylight
21 Nov - 18:47:27 10° WSW 18:55:04 78° NNW 19:09:17 10° ENE visible
21 Nov - 20:59:43 10° WNW 21:10:46 63° N 21:29:01 10° E visible
21 Nov - 23:12:58 10° WNW 23:28:15 81° NNE 23:48:38 10° ESE visible
22 Nov - 01:27:40 10° WNW 01:45:36 61° SW 02:04:03 10° SE visible
22 Nov - 03:47:23 10° W 04:01:07 24° SW 04:13:22 10° S visible
22 Nov - 15:27:08 10° SSE 15:29:52 14° SE 15:33:11 10° E daylight
22 Nov - 17:34:28 10° WSW 17:40:36 77° SSE 17:51:55 10° ENE visible
22 Nov - 19:45:52 10° W 19:54:43 63° N 20:10:31 10° ENE visible
22 Nov - 21:58:32 10° WNW 22:11:17 70° NNE 22:30:52 10° E visible
23 Nov - 00:12:06 10° WNW 00:28:41 78° SSW 00:48:42 10° SE visible
23 Nov - 02:28:27 10° W 02:45:10 38° SW 03:01:15 10° SSE visible
23 Nov - 16:22:10 10° SSW 16:27:03 42° SE 16:35:05 10° ENE daylight
23 Nov - 18:32:24 10° W 18:39:28 70° NNW 18:52:34 10° ENE visible
23 Nov - 20:44:31 10° WNW 20:54:49 62° N 21:12:21 10° E visible
23 Nov - 22:57:20 10° WNW 23:11:43 85° NNE 23:32:02 10° ESE visible
24 Nov - 01:11:44 10° WNW 01:28:42 55° SW 01:47:19 10° SE visible
24 Nov - 03:32:07 10° W 03:44:26 20° SW 03:55:58 10° S visible
24 Nov - 15:11:09 10° S 15:14:09 16° SE 15:17:56 10° E daylight
24 Nov - 17:19:23 10° WSW 17:25:03 88° SSE 17:35:25 10° ENE daylight
24 Nov - 19:30:50 10° W 19:39:03 59° N 19:53:49 10° ENE visible
24 Nov - 21:43:08 10° WNW 21:55:05 72° NNE 22:14:12 10° E visible
24 Nov - 23:56:19 10° WNW 00:11:56 72° SSW 00:31:57 10° SE visible
25 Nov - 02:12:44 10° W 02:28:21 34° SW 02:44:13 10° SSE visible
25 Nov - 16:06:54 10° SW 16:11:28 49° SE 16:18:59 10° ENE daylight
25 Nov - 18:17:27 10° W 18:23:58 63° N 18:35:56 10° ENE visible
25 Nov - 20:29:21 10° WNW 20:38:58 62° N 20:55:40 10° E visible
25 Nov - 22:41:46 10° WNW 22:55:14 89° SSW 23:15:17 10° ESE visible
26 Nov - 00:55:58 10° WNW 01:11:53 49° SW 01:30:22 10° SSE visible
26 Nov - 03:17:25 10° WSW 03:27:51 17° SW 03:38:02 10° S visible
26 Nov - 14:55:23 10° S 14:58:31 20° SE 15:02:35 10° E daylight
26 Nov - 17:04:22 10° WSW 17:09:37 80° NNW 17:19:01 10° ENE daylight
26 Nov - 19:15:51 10° WNW 19:23:27 56° N 19:37:10 10° ENE visible
26 Nov - 21:27:48 10° WNW 21:38:55 75° NNE 21:57:28 10° ESE visible
26 Nov - 23:40:40 10° WNW 23:55:15 65° SSW 00:15:02 10° SE visible
27 Nov - 01:57:16 10° W 02:11:36 29° SW 02:26:52 10° SSE visible
27 Nov - 15:51:42 10° SW 15:56:00 60° SSE 16:02:56 10° ENE daylight
27 Nov - 18:02:31 10° W 18:08:33 56° N 18:19:24 10° ENE visible
27 Nov - 20:14:12 10° WNW 20:23:08 62° NNE 20:39:00 10° E visible
27 Nov - 22:26:16 10° WNW 22:38:49 83° SSW 22:58:22 10° ESE visible
28 Nov - 00:40:23 10° W 00:55:08 43° SW 01:13:10 10° SSE visible
28 Nov - 03:03:38 10° WSW 03:11:24 14° SW 03:19:12 10° SSW visible
28 Nov - 14:39:44 10° SSW 14:42:59 24° SE 14:47:10 10° E daylight
28 Nov - 16:49:25 10° W 16:54:17 68° NNW 17:02:42 10° ENE daylight
28 Nov - 19:00:52 10° WNW 19:07:54 54° N 19:20:36 10° E visible
28 Nov - 21:12:29 10° WNW 21:22:48 79° NNE 21:40:40 10° ESE visible
28 Nov - 23:25:07 10° WNW 23:38:40 59° SSW 23:57:53 10° SE visible
29 Nov - 01:42:09 10° W 01:55:00 25° SW 02:09:10 10° S visible
29 Nov - 15:36:33 10° WSW 15:40:39 74° SSE 15:46:59 10° ENE daylight
29 Nov - 17:47:38 10° W 17:53:12 51° N 18:02:58 10° ENE visible
29 Nov - 19:59:04 10° WNW 20:07:21 64° NNE 20:22:20 10° E visible
29 Nov - 22:10:51 10° WNW 22:22:29 76° SSW 22:41:20 10° SE visible
30 Nov - 00:25:01 10° W 00:38:33 37° SW 00:55:42 10° SSE visible
30 Nov - 02:52:52 10° SW 02:55:07 10° SW 02:57:23 10° SW visible
30 Nov - 14:24:12 10° SSW 14:27:33 30° SE 14:31:45 10° E daylight
30 Nov - 16:34:29 10° W 16:39:01 57° NNW 16:46:30 10° ENE daylight
30 Nov - 18:45:53 10° WNW 18:52:24 52° N 19:04:06 10° E visible
30 Nov - 20:57:12 10° WNW 21:06:46 84° NNE 21:23:47 10° ESE visible
30 Nov - 23:09:44 10° WNW 23:22:13 51° SSW 23:40:33 10° SE visible
